Weather History for Hulett, WY

Change the Weather History Date:

Monday, October 7, 2013

  Actual Average (KEFC) Record (KEFC)
Temperature  
Mean Temperature 44 °F -  
Max Temperature 57 °F 67 °F 91 °F (1975)
Min Temperature 32 °F 35 °F 15 °F (2000)
Degree Days  
Heating Degree Days 20    
Moisture  
Dew Point 32 °F    
Average Humidity 60    
Maximum Humidity 93    
Minimum Humidity 38    
Precipitation  
Precipitation 0.00 in - - ()
Sea Level Pressure  
Sea Level Pressure 29.93 in    
Wind  
Wind Speed 10 mph (SW)    
Max Wind Speed 22 mph    
Max Gust Speed 32 mph    
Visibility 10 miles    
Events      
Averages and records for this station are not official NWS values.
T = Trace of Precipitation, MM = Missing Value Source: NWS Daily Summary

Daily Weather History Graph

Daily Weather History Graph

Search for Another Location

Airport:

Trip Planner

Search our weather history database for the weather conditions in past years. The results will help you decide how hot, cold, wet, or windy it might be!

Date:

Astronomy

Oct. 07, 2013 Rise Set
Actual Time 7:03 AM MDT 6:27 PM MDT
Civil Twilight 6:34 AM MDT 6:56 PM MDT
Nautical Twilight 6:00 AM MDT 7:30 PM MDT
Astronomical Twilight 5:26 AM MDT 8:04 PM MDT
Moon 10:04 AM MDT (10/7) 8:05 PM MDT (10/7)
Length of Visible Light 12h 21m
Length of Day
11h 23m
Waxing Crescent, 9% of the Moon is Illuminated
Oct 7
Waxing Crescent
Oct 11
First Quarter
Oct 18
Full
Oct 26
Last Quarter
Nov 3
New

Hourly Weather History & Observations

Time (MDT) Temp. Windchill Dew Point Humidity Pressure Visibility Wind Dir Wind Speed Gust Speed Precip Events Conditions
12:15 AM 37.4 °F 32.8 °F 32.0 °F 81% 30.10 in 10.0 mi SW 5.8 mph - N/A   Clear
12:35 AM 35.6 °F 29.9 °F 32.0 °F 87% 30.10 in 10.0 mi SW 6.9 mph - N/A   Clear
12:55 AM 37.4 °F 31.4 °F 32.0 °F 81% 30.10 in 10.0 mi SSW 8.1 mph - N/A   Clear
1:15 AM 33.8 °F 28.6 °F 32.0 °F 93% 30.09 in 10.0 mi South 5.8 mph - N/A   Clear
1:55 AM 33.8 °F 27.0 °F 30.2 °F 87% 30.09 in 10.0 mi SSW 8.1 mph - N/A   Clear
2:15 AM 37.4 °F 34.9 °F 32.0 °F 81% 30.09 in 10.0 mi SW 3.5 mph - N/A   Clear
2:35 AM 35.6 °F 29.9 °F 30.2 °F 81% 30.08 in 10.0 mi SW 6.9 mph - N/A   Clear
2:55 AM 33.8 °F 27.7 °F 30.2 °F 87% 30.08 in 10.0 mi SW 6.9 mph - N/A   Clear
3:15 AM 33.8 °F 27.0 °F 30.2 °F 87% 30.07 in 10.0 mi SSW 8.1 mph - N/A   Clear
3:35 AM 33.8 °F 25.8 °F 30.2 °F 87% 30.07 in 10.0 mi SSW 10.4 mph - N/A   Clear
3:55 AM 33.8 °F 25.3 °F 30.2 °F 87% 30.05 in 10.0 mi SSW 11.5 mph - N/A   Clear
4:15 AM 35.6 °F 28.6 °F 30.2 °F 81% 30.05 in 10.0 mi SW 9.2 mph - N/A   Clear
4:35 AM 35.6 °F 29.2 °F 30.2 °F 81% 30.04 in 10.0 mi SW 8.1 mph - N/A   Clear
4:55 AM 33.8 °F 28.6 °F 30.2 °F 87% 30.04 in 10.0 mi SSW 5.8 mph - N/A   Clear
5:15 AM 33.8 °F 27.0 °F 28.4 °F 81% 30.04 in 10.0 mi SW 8.1 mph - N/A   Clear
5:35 AM 33.8 °F 27.0 °F 28.4 °F 81% 30.03 in 10.0 mi SSW 8.1 mph - N/A   Clear
5:55 AM 32.0 °F 24.2 °F 28.4 °F 87% 30.03 in 10.0 mi SSW 9.2 mph - N/A   Clear
6:15 AM 33.8 °F 27.7 °F 28.4 °F 81% 30.03 in 10.0 mi SSW 6.9 mph - N/A   Clear
6:35 AM 35.6 °F 31.7 °F 30.2 °F 81% 30.03 in 10.0 mi SSW 4.6 mph - N/A   Clear
6:55 AM 33.8 °F 27.7 °F 28.4 °F 81% 30.02 in 10.0 mi SW 6.9 mph - N/A   Clear
7:15 AM 33.8 °F 28.6 °F 28.4 °F 81% 30.01 in 10.0 mi SW 5.8 mph - N/A   Clear
7:35 AM 32.0 °F 26.4 °F 28.4 °F 87% 30.01 in 10.0 mi SW 5.8 mph - N/A   Clear
7:55 AM 35.6 °F 31.7 °F 30.2 °F 81% 30.01 in 10.0 mi WSW 4.6 mph - N/A   Clear
8:15 AM 37.4 °F 33.8 °F 30.2 °F 75% 30.01 in 10.0 mi SW 4.6 mph - N/A   Clear
8:35 AM 39.2 °F 35.9 °F 30.2 °F 70% 30.01 in 10.0 mi SW 4.6 mph - N/A   Clear
8:55 AM 42.8 °F - 32.0 °F 66% 30.00 in 10.0 mi North - - N/A   Clear
9:15 AM 42.8 °F 38.6 °F 32.0 °F 66% 30.00 in 10.0 mi WSW 6.9 mph - N/A   Clear
9:35 AM 42.8 °F 39.3 °F 32.0 °F 66% 29.99 in 10.0 mi WSW 5.8 mph - N/A   Clear
9:55 AM 44.6 °F 40.2 °F 32.0 °F 61% 29.99 in 10.0 mi WSW 8.1 mph - N/A   Clear
10:15 AM 46.4 °F 41.9 °F 32.0 °F 57% 29.98 in 10.0 mi WSW 9.2 mph - N/A   Clear
10:35 AM 50.0 °F - 33.8 °F 54% 29.98 in 10.0 mi WSW 8.1 mph - N/A   Clear
10:55 AM 50.0 °F - 33.8 °F 54% 29.97 in 10.0 mi WSW 9.2 mph - N/A   Clear
11:15 AM 50.0 °F - 33.8 °F 54% 29.96 in 10.0 mi WSW 8.1 mph - N/A   Clear
11:35 AM 51.8 °F - 33.8 °F 50% 29.96 in 10.0 mi WSW 8.1 mph - N/A   Clear
11:55 AM 51.8 °F - 33.8 °F 50% 29.95 in 10.0 mi West 9.2 mph - N/A   Clear
12:15 PM 51.8 °F - 33.8 °F 50% 29.94 in 10.0 mi WSW 10.4 mph - N/A   Clear
12:35 PM 53.6 °F - 33.8 °F 47% 29.93 in 10.0 mi WSW 15.0 mph - N/A   Clear
12:55 PM 55.4 °F - 32.0 °F 41% 29.92 in 10.0 mi WSW 12.7 mph - N/A   Clear
1:15 PM 55.4 °F - 32.0 °F 41% 29.91 in 10.0 mi WSW 12.7 mph - N/A   Clear
1:35 PM 55.4 °F - 32.0 °F 41% 29.90 in 10.0 mi WSW 15.0 mph - N/A   Clear
1:55 PM 55.4 °F - 32.0 °F 41% 29.89 in 10.0 mi SW 15.0 mph 20.7 mph N/A   Clear
2:15 PM 57.2 °F - 32.0 °F 38% 29.88 in 10.0 mi SW 16.1 mph 19.6 mph N/A   Clear
2:35 PM 55.4 °F - 32.0 °F 41% 29.87 in 10.0 mi SW 17.3 mph 24.2 mph N/A   Clear
2:55 PM 55.4 °F - 32.0 °F 41% 29.87 in 10.0 mi SSW 11.5 mph - N/A   Clear
3:15 PM 55.4 °F - 32.0 °F 41% 29.87 in 10.0 mi SSW 5.8 mph 9.2 mph N/A   Clear
3:35 PM 51.8 °F - 32.0 °F 47% 29.86 in 10.0 mi SSW 16.1 mph - N/A   Clear
3:55 PM 50.0 °F - 32.0 °F 50% 29.85 in 10.0 mi SSW 15.0 mph - N/A   Clear
4:15 PM 53.6 °F - 32.0 °F 44% 29.84 in 10.0 mi South 17.3 mph 20.7 mph N/A   Clear
4:35 PM 55.4 °F - 32.0 °F 41% 29.82 in 10.0 mi South 16.1 mph 20.7 mph N/A   Clear
4:55 PM 55.4 °F - 32.0 °F 41% 29.81 in 10.0 mi SSW 18.4 mph - N/A   Clear
5:15 PM 55.4 °F - 32.0 °F 41% 29.81 in 10.0 mi SSW 19.6 mph 31.1 mph N/A   Clear
5:35 PM 55.4 °F - 33.8 °F 44% 29.81 in 10.0 mi SSW 20.7 mph 28.8 mph N/A   Clear
5:55 PM 55.4 °F - 33.8 °F 44% 29.80 in 10.0 mi SSW 20.7 mph 29.9 mph N/A   Clear
6:15 PM 55.4 °F - 33.8 °F 44% 29.79 in 10.0 mi SSW 20.7 mph 27.6 mph N/A   Clear
6:35 PM 55.4 °F - 33.8 °F 44% 29.80 in 10.0 mi SSW 21.9 mph 28.8 mph N/A   Clear
6:55 PM 55.4 °F - 33.8 °F 44% 29.80 in 10.0 mi SSW 20.7 mph 25.3 mph N/A   Clear
7:15 PM 55.4 °F - 33.8 °F 44% 29.79 in 10.0 mi SSW 20.7 mph 27.6 mph N/A   Clear
7:35 PM 53.6 °F - 33.8 °F 47% 29.79 in 10.0 mi SSW 21.9 mph 32.2 mph N/A   Clear
7:55 PM 55.4 °F - 33.8 °F 44% 29.79 in 10.0 mi SSW 21.9 mph 27.6 mph N/A   Clear
8:15 PM 55.4 °F - 33.8 °F 44% 29.79 in 10.0 mi SSW 20.7 mph 27.6 mph N/A   Clear
8:35 PM 55.4 °F - 33.8 °F 44% 29.78 in 10.0 mi SSW 20.7 mph 26.5 mph N/A   Clear
8:55 PM 55.4 °F - 33.8 °F 44% 29.79 in 10.0 mi SSW 16.1 mph 26.5 mph N/A   Clear
9:15 PM 55.4 °F - 33.8 °F 44% 29.78 in 10.0 mi SSW 17.3 mph 24.2 mph N/A   Clear
9:35 PM 55.4 °F - 33.8 °F 44% 29.78 in 10.0 mi SSW 16.1 mph 24.2 mph N/A   Clear
9:55 PM 55.4 °F - 33.8 °F 44% 29.78 in 10.0 mi SSW 16.1 mph - N/A   Clear
10:15 PM 53.6 °F - 33.8 °F 47% 29.78 in 10.0 mi SSW 16.1 mph 25.3 mph N/A   Clear
10:35 PM 53.6 °F - 33.8 °F 47% 29.77 in 10.0 mi SSW 16.1 mph 23.0 mph N/A   Clear
10:55 PM 51.8 °F - 33.8 °F 50% 29.77 in 10.0 mi SSW 17.3 mph - N/A   Clear
11:15 PM 53.6 °F - 33.8 °F 47% 29.77 in 10.0 mi SSW 12.7 mph - N/A   Clear
11:35 PM 51.8 °F - 33.8 °F 50% 29.77 in 10.0 mi SSW 12.7 mph - N/A   Clear
11:55 PM 51.8 °F - 33.8 °F 50% 29.77 in 10.0 mi SSW 15.0 mph - N/A   Clear